This is the latest recevied weather packets stored in our database for station/object n7wwk-1. If no packets are shown the sender has not sent any weather packets the latest 10 day(s).
| Time | Temp. | Humidity | Pressure | Rain* | Wind** | Luminosity | Snow |
|---|---|---|---|---|---|---|---|
| 1777501205 | 32.22° C | 47% | 1008.1 hPa | 0 mm | - | 182 W/m² | - |
| 1777500604 | 33.33° C | 44% | 1008.3 hPa | 0 mm | - | 210 W/m² | - |
| 1777499535 | 33.33° C | 43% | 1008.2 hPa | 0 mm | - | 272 W/m² | - |
| 1777496406 | 32.78° C | 45% | 1008.9 hPa | 0 mm | - | 176 W/m² | - |
| 1777495205 | 33.89° C | 43% | 1009.2 hPa | 0 mm | - | 363 W/m² | - |
| 1777494605 | 33.89° C | 43% | 1009.1 hPa | 0 mm | - | 544 W/m² | - |
| 1777491005 | 33.33° C | 41% | 1010.6 hPa | 0 mm | - | 514 W/m² | - |
| 1777490405 | 33.89° C | 44% | 1010.9 hPa | 0 mm | - | 695 W/m² | - |
| 1777489205 | 33.33° C | 45% | 1011.2 hPa | 0 mm | - | 756 W/m² | - |
| 1777486805 | 33.33° C | 47% | 1012.2 hPa | 0 mm | - | 824 W/m² | - |
| 1777485605 | 31.67° C | 53% | 1012.7 hPa | 0 mm | - | 275 W/m² | - |
| 1777475405 | 27.78° C | 67% | 1014.9 hPa | 0 mm | - | 651 W/m² | - |
| 1777471939 | 25.56° C | 77% | 1015.8 hPa | 0 mm | - | 428 W/m² | - |
| 1777467605 | 21.67° C | 90% | 1016.3 hPa | 0 mm | - | 160 W/m² | - |
| 1777465805 | 20.56° C | 98% | 1016.5 hPa | 0 mm | - | 174 W/m² | - |
| 1777465204 | 20° C | 99% | 1016.1 hPa | 0 mm | - | 75 W/m² | - |
| 1777464006 | 19.44° C | 99% | 1016.7 hPa | 0 mm | - | 38 W/m² | - |
| 1777462804 | 18.89° C | 99% | 1015.4 hPa | 0 mm | - | 35 W/m² | - |
| 1777459805 | 18.33° C | 99% | 1014.6 hPa | 0 mm | - | 4 W/m² | - |
| 1777459205 | 17.78° C | 99% | 1014.4 hPa | 0 mm | - | 1 W/m² | - |
| 1777457405 | 17.78° C | 99% | 1014.4 hPa | 0 mm | - | 0 W/m² | - |
| 1777452605 | 17.78° C | 99% | 1013.9 hPa | 0 mm | - | 0 W/m² | - |
| 1777451405 | 17.78° C | 98% | 1014.1 hPa | 0 mm | - | 0 W/m² | - |
| 1777447804 | 17.78° C | 98% | 1013.9 hPa | 0 mm | - | 0 W/m² | - |
| 1777447205 | 17.78° C | 97% | 1014.2 hPa | 0 mm | - | 0 W/m² | - |
* Rain latest hour (hover to see other rain measurements)
** Current wind speed in m/s (hover to see current wind gust speed)